Regional Weather Roundup
Issued by NWS

Home | Current Version | Previous Version | Graphics & Text | Print | Product List | Glossary On
Versions: 1 2 3 4 5 6 7 8 9 10 11 12 13 14 15 16 17 18 19 20 21 22 23 24 25 26 27 28 29 30 31 32 33 34 35 36 37 38 39 40 41 42 43 44 45 46 47 48 49 50
000
ASUS43 KLMK 312010
RWRKY
KENTUCKY REGIONAL WEATHER ROUNDUP
NATIONAL WEATHER SERVICE LOUISVILLE KY
400 PM EDT THU JUL 31 2014

NOTE "FAIR" INDICATES FEW OR NO CLOUDS BELOW 12,000 FEET
WITH NO SIGNIFICANT WEATHER AND/OR OBSTRUCTIONS TO VISIBILITY.

KYZ001>023-026-027-061>063-070>075-312100-
WESTERN AND SOUTH CENTRAL KENTUCKY

CITY           SKY/WX    TMP DP  RH WIND       PRES   REMARKS
PADUCAH        MOSUNNY   83  60  45 SW6       30.08F
HENDERSON      PTSUNNY   81  63  54 NE5       30.07F
OWENSBORO      MOSUNNY   83  61  47 W7        30.09S
HOPKINSVILLE   PTSUNNY   82  54  37 VRB2      30.08F
BOWLING GREEN  PTSUNNY   83  53  35 CALM      30.08F
GLASGOW        MOSUNNY   83  54  36 N5        30.09F
$$

KYZ024-025-028>034-038-045-046-053-312100-
NORTH CENTRAL KENTUCKY

CITY           SKY/WX    TMP DP  RH WIND       PRES   REMARKS
LOUISVILLE/SDF MOSUNNY   83  55  38 S7        30.08F
LOUISVILLE/LOU SUNNY     83  56  39 S8        30.08F
FORT KNOX      SUNNY     81  58  46 NE6       30.08F
$$

KYZ035>037-039>044-047>052-055>060-089>105-312100-
NORTHEAST KENTUCKY

CITY           SKY/WX    TMP DP  RH WIND       PRES   REMARKS
LEXINGTON      MOSUNNY   81  56  42 VRB5      30.11F
COVINGTON      PTSUNNY   79  57  46 W7        30.09F
FRANKFORT      SUNNY     82  56  40 W6        30.09F
$$

KYZ054-064>069-076>088-106>120-312100-
SOUTHEAST KENTUCKY

CITY           SKY/WX    TMP DP  RH WIND       PRES   REMARKS
JACKSON        MOSUNNY   79  56  45 VRB3      30.13F
LONDON         MOSUNNY   81  57  43 SE6       30.12F
SOMERSET       MOSUNNY   79  54  41 CALM      30.12F
MIDDLESBORO    MOSUNNY   82  60  46 CALM      30.11F
MONTICELLO     PTCLDY    83  63  50 N6        30.12F
$$



USA.gov is the U.S. government's official web portal to all federal, state and local government web resources and services.